ORBCOMM FM 16 DEB

Satellite information

Favourite Embed

Satellite Type and Status

DEBRISIN ORBIT

Key statistics

Satellite ORBCOMM FM 16 DEB at a glance.

Uptime

9996

Days in orbit

Revolutions

≈ 14.4

Per day

Orbit

LEO

Low Earth Orbit

Inclination

45.0

Latest

Satellite identification and parameters

Extended collection of information and parameters for ORBCOMM FM 16 DEB.

Object identification

Identified? True

Debris? True

Object name: ORBCOMM FM 16 DEB

International designator: 1998-046T

Object number (NORAD): 44024

Object ID (CCSDS): 44024

Country: ORBITAL TELECOMMUNICATIONS SATELLITE (GLOBALSTAR) (ORB)

Current information (Y/N): Y

RCS size: SMALL

Orbital parameters

Period: 100.126 minutes

Inclination: 44.9965 deg

SMA: 7142.619 km

Apoapsis: 767.663 km

Periapsis: 761.305 km

RAAN: 43.6582 deg

Eccentricy: 0.00044501

Argument of periapsis: 142.0852 deg

Mean anomaly: 218.031 deg

Mean motion: 14.38190902 rev/day

Mean motion (dot): 0.00001349 rev/day2

B* drag term: 0.00048649309 1/REarth

Two-line elements (TLE)

Creation date: Dec. 14, 2025, 3:07 a.m.

Reference frame: TEME

Reference center: EARTH

Epoch: Dec. 13, 2025, 12:30 p.m. UTC

TLE line 0: 0 ORBCOMM FM 16 DEB

TLE line 1: 1 44024U 98046T 25347.52144608 .00001349 00000-0 48649-3 0 9993

TLE line 2: 2 44024 44.9965 43.6582 0004450 142.0852 218.0310 14.38190902364933

Live tracking on map

Real-time ground track for satellite ORBCOMM FM 16 DEB.

In-orbit conjunctions

A list of the most updated potential collisions computed for object ORBCOMM FM 16 DEB.

Target Orbit TCA Probability of collision Miss distance Type
GEOSAT SSO 2025-12-02 05:19:13 0.0001863679 318.0 (m) PAYLOAD
ORBCOMM FM 28 LEO 2024-07-28 22:40:44 0.0002031623 185.0 (m) PAYLOAD

Associated space launch

ORBCOMM FM 16 DEB was lifted into orbit during the mission ‘Pegasus XL HAPS | Orbcomm-B1 - B8’, on board a Pegasus XL HAPS space rocket.

The launch took place on Aug. 2, 1998, 4:24 p.m. from Wallops Flight Facility.

For more information about the launch, click the button.

Launch to space Pegasus XL HAPS | Orbcomm-B1 - B8
Pegasus XL HAPS | Orbcomm-B1 - B8

Agency: N/A

Status: Launch Successful

Launch date: Aug. 2, 1998, 4:24 p.m. UTC

Rocket: Pegasus XL HAPS

Launch pad: Wallops Flight Facility

Location: Air launch to orbit

...

Latest news about this satellite

There are no fresh news available about this satellite. Check back as we update our databases every day.


Newsletter sign-up

Weekly statistics, charts and insights to help you stay on top of the space industry.